Date_and_time,latitude,longitude,wind_speed,RelWindDirFrom,WindDirFrom,air_pressure,air_temperature,relative_humidity,Temp,platform_speed_wrt_ground,air_pressure_at_mean_sea_level,platform_orientation
2019-05-21 23:30,50.63046,-96.980785,11.6,13.1,12,989.45,16.6,47,11.87,0.0,1015.81,285.8
2019-05-21 23:40,50.6304333333333,-96.9807883333333,11.9,13.6,11,989.34,16.5,46,11.98,0.0,1015.70,285.8
2019-05-21 23:50,50.6304466666667,-96.980795,11.3,13.5,10,989.14,16.9,44,12.04,0.0,1015.47,285.8
2019-05-22 00:00,50.6304533333333,-96.9807883333333,11.2,13.3,11,988.98,17.0,43,12.09,0.0,1015.30,341.2
2019-05-22 00:10,50.6304583333333,-96.9807883333333,10.9,12.8,8,988.84,16.9,44,12.13,0.0,1015.16,341.2
2019-05-22 00:20,50.6304683333333,-96.98078,10.0,11.9,7,988.78,17.1,47,12.11,0.0,1015.08,341.2
2019-05-22 00:30,50.6304566666667,-96.9807783333333,10.1,11.3,8,988.67,17.2,46,12.08,0.0,1014.95,341.2
2019-05-22 00:40,50.6304633333333,-96.9807666666667,9.7,10.7,10,988.60,17.5,44,12.13,0.0,1014.83,341.2
2019-05-22 00:50,50.63046,-96.9807633333333,8.8,10.4,8,988.65,17.3,43,12.20,0.0,1014.91,341.2
2019-05-22 01:00,50.63046,-96.9807883333333,7.9,10.6,7,988.65,18.1,37,12.11,0.0,1014.86,246.4
2019-05-22 01:10,50.6304733333333,-96.9807916666667,9.3,12.5,7,988.60,17.9,42,12.15,0.0,1014.78,246.4
2019-05-22 01:20,50.630455,-96.98078,10.8,13.8,12,988.54,17.4,46,12.22,0.0,1014.77,246.4
2019-05-22 01:30,50.630455,-96.9807883333333,9.1,9.9,18,988.62,16.1,56,12.37,0.0,1014.91,246.4
2019-05-22 01:40,50.63046,-96.9807833333333,8.4,9.2,13,988.57,15.7,58,12.59,0.0,1014.86,246.4
2019-05-22 01:50,50.63045,-96.9807833333333,8.6,9.6,6,988.46,16.0,53,12.50,0.0,1014.74,246.4
2019-05-22 02:00,50.6304533333333,-96.9807783333333,7.6,9.2,359,988.40,16.3,50,12.48,0.0,1014.66,360.0
2019-05-22 02:10,50.630455,-96.9807816666667,8.4,10.1,7,988.42,16.1,53,12.40,0.0,1014.69,360.0
2019-05-22 02:20,50.6304566666667,-96.980785,8.1,9.5,9,988.42,15.4,57,12.41,0.0,1014.71,360.0
2019-05-22 02:30,50.630455,-96.9807866666667,8.4,10.0,10,988.22,14.6,64,12.32,0.0,1014.53,360.0
2019-05-22 02:40,50.630455,-96.9807866666667,8.2,10.4,9,988.14,14.3,66,12.35,0.0,1014.47,360.0
2019-05-22 02:50,50.6304566666667,-96.9807883333333,12.1,14.9,10,987.81,14.2,65,12.47,0.0,1014.10,360.0
2019-05-22 03:00,50.6304583333333,-96.9807866666667,12.6,14.5,13,987.72,13.9,68,12.42,0.0,1014.03,360.0
2019-05-22 03:10,50.6304583333333,-96.9807866666667,13.1,14.9,19,987.71,14.2,64,12.41,0.0,1014.03,360.0
2019-05-22 03:20,50.630495,-96.9808333333333,12.9,14.8,16,987.98,14.4,62,12.42,0.0,1014.36,360.0
2019-05-22 03:30,50.6304733333333,-96.9807783333333,12.2,14.3,10,988.14,14.2,64,12.47,0.0,1014.55,360.0
2019-05-22 03:40,50.63047,-96.9807833333333,10.7,13.2,5,988.33,14.2,62,12.48,0.0,1014.73,360.0
2019-05-22 03:50,50.6304683333333,-96.9807833333333,11.1,12.9,7,988.49,14.2,61,12.48,0.0,1014.87,360.0
2019-05-22 04:00,50.6304666666667,-96.980785,9.8,12.5,10,988.60,13.9,63,12.42,0.0,1015.02,14.5
2019-05-22 04:10,50.630465,-96.9807833333333,7.2,8.9,22,988.80,13.4,69,12.43,0.0,1015.28,14.5
2019-05-22 04:20,50.6304583333333,-96.9808033333333,6.7,8.9,31,988.81,12.9,74,12.42,0.0,1015.35,14.5
2019-05-22 04:30,50.6304666666667,-96.9807633333333,5.7,7.6,24,988.82,12.3,79,12.36,0.0,1015.40,14.5
2019-05-22 04:40,50.63047,-96.980765,7.3,8.9,8,988.69,12.2,79,12.28,0.0,1015.28,14.5
2019-05-22 04:50,50.6304733333333,-96.98079,7.8,9.9,18,988.57,12.5,74,12.26,0.0,1015.15,14.5
2019-05-22 05:00,50.6304683333333,-96.9807783333333,10.7,12.8,13,988.29,12.9,69,12.26,0.0,1014.83,360.0
2019-05-22 05:10,50.6304666666667,-96.9807783333333,11.0,13.1,7,988.13,12.8,70,12.29,0.0,1014.66,360.0
2019-05-22 05:20,50.6304666666667,-96.9807783333333,11.4,13.5,9,987.92,12.7,70,12.35,0.0,1014.46,360.0
2019-05-22 05:30,50.6304666666667,-96.9807766666667,10.9,12.6,11,987.82,12.5,72,12.40,0.0,1014.37,360.0
2019-05-22 05:40,50.6304666666667,-96.9807766666667,9.9,11.8,8,987.75,12.4,73,12.42,0.0,1014.31,360.0
2019-05-22 05:50,50.630465,-96.9807766666667,8.8,10.9,3,987.67,12.2,75,12.43,0.0,1014.25,360.0
2019-05-22 06:00,50.6304633333333,-96.9807766666667,9.3,11.7,5,987.59,12.2,76,12.42,0.0,1014.18,66.4
2019-05-22 06:10,50.6304633333333,-96.9807783333333,11.6,13.6,13,987.38,12.5,73,12.42,0.0,1013.98,66.4
2019-05-22 06:20,50.6304633333333,-96.9807683333333,11.0,12.6,14,987.21,12.5,73,12.41,0.0,1013.83,66.4
2019-05-22 06:30,50.6304616666667,-96.9807683333333,10.4,12.1,15,987.08,12.6,72,12.41,0.0,1013.70,66.4
2019-05-22 06:40,50.63046,-96.9807733333333,9.8,11.6,17,986.91,12.7,70,12.42,0.0,1013.50,66.4
2019-05-22 06:50,50.63046,-96.9807733333333,9.5,11.2,18,986.79,12.4,75,12.42,0.0,1013.38,66.4
2019-05-22 07:00,50.6304616666667,-96.980775,10.6,12.0,29,986.64,12.2,76,12.42,0.0,1013.23,119.2
2019-05-22 07:10,50.63046,-96.980775,10.2,11.3,36,986.49,12.3,74,12.44,0.0,1013.09,119.2
2019-05-22 07:20,50.6304616666667,-96.980775,11.4,12.9,36,986.32,12.1,76,12.46,0.0,1012.93,119.2
2019-05-22 07:30,50.6304616666667,-96.9807733333333,11.4,13.1,43,986.27,12.1,73,12.46,0.0,1012.88,119.2
2019-05-22 07:40,50.6304583333333,-96.9807816666667,10.8,12.1,40,986.29,11.9,75,12.47,0.0,1012.91,119.2
2019-05-22 07:50,50.63046,-96.9807783333333,10.2,11.9,42,986.30,11.9,74,12.48,0.0,1012.92,119.2
2019-05-22 08:00,50.6304633333333,-96.9807733333333,10.9,12.6,46,986.23,12.1,72,12.47,0.0,1012.84,119.2
2019-05-22 08:10,50.6304466666667,-96.9807733333333,11.3,13.1,28,986.14,11.7,78,12.47,0.0,1012.76,119.2
2019-05-22 08:20,50.6304516666667,-96.980765,11.8,13.3,43,986.05,11.8,74,12.49,0.0,1012.66,119.2
2019-05-22 08:30,50.630455,-96.98077,11.6,13.0,46,986.14,11.9,74,12.50,0.0,1012.74,119.2
2019-05-22 08:40,50.6304683333333,-96.9807716666667,11.5,13.5,48,986.24,11.8,75,12.53,0.0,1012.86,119.2
2019-05-22 08:50,50.6304666666667,-96.9807733333333,11.3,13.1,51,986.28,11.7,76,12.55,0.0,1012.92,119.2
2019-05-22 09:00,50.630465,-96.98077,11.4,13.8,53,986.26,11.6,76,12.53,0.0,1012.89,48.3
2019-05-22 09:10,50.6304533333333,-96.98077,11.4,12.9,57,986.23,11.7,75,12.53,0.0,1012.87,48.3
2019-05-22 09:20,50.6304583333333,-96.980775,12.0,13.7,56,986.19,11.7,74,12.55,0.0,1012.83,48.3
2019-05-22 09:30,50.63046,-96.980775,11.0,12.8,59,986.14,11.6,75,12.58,0.0,1012.79,48.3
2019-05-22 09:40,50.6304633333333,-96.980775,11.8,13.4,60,986.08,11.7,72,12.59,0.0,1012.73,48.3
2019-05-22 09:50,50.6304633333333,-96.980775,11.3,12.6,56,986.04,11.6,73,12.60,0.0,1012.68,48.3
2019-05-22 10:00,50.6304633333333,-96.9807733333333,11.1,12.6,51,985.93,11.5,74,12.61,0.0,1012.59,0.0
2019-05-22 10:10,50.6304633333333,-96.9807733333333,11.7,13.4,48,985.85,11.4,74,12.62,0.0,1012.51,0.0
2019-05-22 10:20,50.630465,-96.9807716666667,12.1,14.0,49,985.76,11.4,74,12.66,0.0,1012.41,0.0
2019-05-22 10:30,50.630465,-96.9807733333333,12.3,13.9,48,985.67,11.4,74,12.68,0.0,1012.32,0.0
2019-05-22 10:40,50.630465,-96.9807733333333,12.9,14.3,47,985.54,11.4,73,12.69,0.0,1012.19,0.0
2019-05-22 10:50,50.630465,-96.9807733333333,13.1,15.2,47,985.45,11.5,72,12.71,0.0,1012.10,0.0
2019-05-22 11:00,50.630465,-96.9807733333333,13.3,15.1,48,985.37,11.5,72,12.69,0.0,1012.01,38.0
2019-05-22 11:10,50.630465,-96.9807733333333,13.1,14.8,47,985.31,11.5,74,12.70,0.0,1011.96,38.0
2019-05-22 11:20,50.630465,-96.9807733333333,13.1,14.9,44,985.24,11.4,76,12.69,0.0,1011.89,38.0
2019-05-22 11:30,50.6304633333333,-96.9807816666667,11.7,13.6,38,985.27,11.1,81,12.65,0.0,1011.93,38.0
2019-05-22 11:40,50.630475,-96.9807883333333,12.7,16.1,41,985.24,10.9,81,12.63,0.0,1011.91,38.0
2019-05-22 11:50,50.6304616666667,-96.9807783333333,12.6,15.6,44,985.28,11.1,80,12.62,0.0,1011.95,38.0
2019-05-22 12:00,50.6304616666667,-96.98078,13.1,15.0,42,985.21,11.0,81,12.60,0.0,1011.89,248.5
2019-05-22 12:10,50.630465,-96.9807816666667,13.1,14.9,37,985.17,10.8,83,12.59,0.0,1011.85,248.5
2019-05-22 12:20,50.630465,-96.98078,14.6,16.8,40,985.04,10.7,81,12.57,0.0,1011.73,248.5
2019-05-22 12:30,50.630465,-96.9807783333333,14.5,16.6,36,984.96,10.7,81,12.58,0.0,1011.64,248.5
2019-05-22 12:40,50.6304733333333,-96.980785,14.4,16.4,38,984.94,10.7,80,12.59,0.0,1011.62,248.5
2019-05-22 12:50,50.63047,-96.9807716666667,14.8,17.5,40,984.90,10.8,78,12.58,0.0,1011.58,248.5
2019-05-22 13:00,50.6304683333333,-96.98077,15.1,17.3,42,984.82,10.9,77,12.58,0.0,1011.49,48.3
2019-05-22 13:10,50.6304683333333,-96.98077,15.7,18.2,42,984.74,11.0,75,12.57,0.0,1011.40,48.3
2019-05-22 13:20,50.6304616666667,-96.9807516666667,15.0,17.1,43,984.77,11.0,76,12.55,0.0,1011.46,48.3
2019-05-22 13:30,50.6304616666667,-96.9808166666667,14.2,16.1,48,984.81,11.0,76,12.52,0.0,1011.51,48.3
2019-05-22 13:40,50.6296033333333,-96.9810183333333,13.7,16.3,49,984.75,10.9,76,12.50,0.3,1011.44,48.3
2019-05-22 13:50,50.6283916666667,-96.95916,16.7,23.5,71,984.37,10.7,75,12.32,5.0,1011.06,48.3
2019-05-22 14:00,50.6283683333333,-96.9596766666667,11.0,13.3,68,984.69,10.5,78,11.48,0.1,1011.41,98.9
2019-05-22 14:10,50.6283316666667,-96.95965,11.1,12.7,73,984.71,10.2,81,11.35,0.0,1011.45,98.9
2019-05-22 14:20,50.6282966666667,-96.9596216666667,11.2,13.3,71,984.62,10.3,79,11.28,0.0,1011.35,98.9
2019-05-22 14:30,50.62832,-96.9596383333333,11.4,14.2,71,984.54,10.6,76,11.21,0.0,1011.25,98.9
2019-05-22 14:40,50.6283516666667,-96.9596383333333,11.0,13.0,73,984.49,10.7,74,11.15,0.0,1011.20,98.9
2019-05-22 14:50,50.628365,-96.9596666666667,11.0,12.9,73,984.45,10.9,72,11.09,0.0,1011.13,98.9
2019-05-22 15:00,50.628335,-96.9596633333333,11.3,13.1,68,984.33,11.0,71,11.05,0.0,1011.00,99.0
2019-05-22 15:10,50.6282783333333,-96.9596016666667,9.8,12.1,56,984.27,10.8,75,11.02,0.0,1010.96,99.0
2019-05-22 15:20,50.6282616666667,-96.95957,9.4,11.2,56,984.16,10.5,76,11.03,0.0,1010.86,99.0
2019-05-22 15:30,50.628295,-96.95959,10.1,11.6,54,983.93,10.7,73,11.06,0.0,1010.61,99.0
2019-05-22 15:40,50.6282716666667,-96.9595633333333,8.6,10.9,53,984.01,10.7,75,11.06,0.0,1010.71,99.0
2019-05-22 15:50,50.628295,-96.9596033333333,8.0,9.9,57,984.10,10.4,80,11.05,0.0,1010.82,99.0
2019-05-22 16:00,50.6283333333333,-96.9596583333333,9.4,10.9,66,984.11,10.6,77,11.05,0.0,1010.84,99.1
2019-05-22 16:10,50.6282583333333,-96.9595516666667,8.4,10.6,63,984.17,10.6,79,11.04,0.0,1010.90,99.1
2019-05-22 16:20,50.6298333333333,-96.96087,8.1,13.2,53,984.16,10.2,82,11.05,0.6,1010.89,99.1
2019-05-22 16:30,50.6304583333333,-96.9807816666667,5.6,12.4,25,984.23,10.6,82,11.66,4.6,1010.94,99.1
2019-05-22 16:40,50.6304466666667,-96.9807333333333,8.5,9.5,42,984.13,11.1,81,12.44,0.0,1010.81,99.1
2019-05-22 16:50,50.6304533333333,-96.9807416666667,8.7,10.2,45,984.11,11.2,81,12.41,0.0,1010.77,99.1
2019-05-22 17:00,50.6304533333333,-96.9807433333333,8.8,11.1,48,984.06,11.3,79,12.33,0.0,1010.73,278.9
2019-05-22 17:10,50.63045,-96.9807466666667,8.1,9.4,50,983.96,11.4,77,12.41,0.0,1010.63,278.9
2019-05-22 17:20,50.6304166666667,-96.9807383333333,8.3,9.9,64,984.06,11.6,75,12.49,0.0,1010.72,278.9
2019-05-22 17:30,50.6304433333333,-96.980745,9.1,10.7,67,984.03,11.8,73,12.50,0.0,1010.68,278.9
2019-05-22 17:40,50.6304216666667,-96.9807466666667,10.9,12.8,73,984.04,12.4,68,12.49,0.0,1010.67,278.9
2019-05-22 17:50,50.630445,-96.980755,10.5,12.6,78,984.13,12.5,69,12.55,0.0,1010.75,278.9
2019-05-22 18:00,50.62997,-96.9808033333333,8.9,12.2,89,984.18,12.6,68,12.61,0.2,1010.80,277.0
2019-05-22 18:10,50.6282816666667,-96.957505,13.5,19.5,95,983.85,11.9,69,12.51,5.4,1010.51,277.0
2019-05-22 18:20,50.6284483333333,-96.95812,8.1,9.6,97,984.16,11.8,68,11.60,0.2,1010.81,277.0
2019-05-22 18:30,50.6285083333333,-96.9581083333333,7.5,9.7,91,984.18,11.5,71,11.46,0.0,1010.82,277.0
2019-05-22 18:40,50.628535,-96.9580866666667,7.3,9.9,102,984.21,11.3,76,11.42,0.0,1010.86,277.0
2019-05-22 18:50,50.6285383333333,-96.9580833333333,9.7,11.2,105,984.27,11.5,73,11.40,0.0,1010.91,277.0
2019-05-22 19:00,50.6285033333333,-96.9580966666667,8.6,10.7,91,984.36,11.3,73,11.36,0.0,1011.01,80.4
2019-05-22 19:10,50.6285266666667,-96.9580966666667,8.2,11.6,81,984.29,11.1,72,11.33,0.0,1010.93,80.4
2019-05-22 19:20,50.6284616666667,-96.9581166666667,9.9,11.8,84,984.24,11.3,68,11.33,0.0,1010.86,80.4
2019-05-22 19:30,50.6284833333333,-96.9581333333333,10.5,13.5,92,984.36,11.3,71,11.33,0.0,1010.96,80.4
2019-05-22 19:40,50.6285833333333,-96.958085,8.2,10.3,105,984.42,11.1,77,11.34,0.0,1011.02,80.4
2019-05-22 19:50,50.6285216666667,-96.95811,7.9,11.2,109,984.38,11.0,78,11.35,0.0,1010.98,80.4
2019-05-22 20:00,50.6284516666667,-96.9581433333333,10.4,16.1,90,984.18,11.3,71,11.35,0.0,1010.80,98.0
2019-05-22 20:10,50.6284966666667,-96.9581316666667,17.7,24.0,86,983.73,11.6,66,11.33,0.0,1010.33,98.0
2019-05-22 20:20,50.6285116666667,-96.9581466666667,21.2,25.1,88,983.49,11.4,67,11.33,0.0,1010.10,98.0
2019-05-22 20:30,50.6285133333333,-96.9581533333333,21.8,27.6,89,983.37,11.3,69,11.30,0.0,1009.99,98.0
2019-05-22 20:40,50.6284383333333,-96.9582033333333,22.9,27.5,91,983.38,11.1,70,11.28,0.0,1010.00,98.0
2019-05-22 20:50,50.6288633333333,-96.9811366666667,17.9,26.9,81,984.27,12.0,68,11.35,5.2,1010.88,98.0
2019-05-22 21:00,50.630455,-96.98079,23.9,28.1,69,984.19,11.7,73,12.20,0.6,1010.82,2.5
2019-05-22 21:10,50.630465,-96.98079,24.3,29.4,60,984.00,11.3,72,12.10,0.0,1010.64,2.5
2019-05-22 21:20,50.630465,-96.98079,26.1,33.3,61,984.00,11.3,73,12.16,0.0,1010.64,2.5
2019-05-22 21:30,50.6304633333333,-96.9807866666667,25.5,32.0,61,984.07,11.3,74,12.27,0.0,1010.72,2.5
2019-05-22 21:40,50.6304666666667,-96.9808116666667,22.6,26.6,58,984.14,11.1,77,12.31,0.0,1010.81,2.5
2019-05-22 21:50,50.630465,-96.9807983333333,21.3,24.6,54,984.13,10.9,79,12.31,0.0,1010.79,2.5
2019-05-22 22:00,50.630475,-96.9807933333333,19.4,23.5,54,984.16,10.9,81,12.33,0.0,1010.81,277.8
2019-05-22 22:10,50.63047,-96.9807816666667,17.5,21.0,55,984.24,10.8,81,12.39,0.0,1010.90,277.8
2019-05-22 22:20,50.6304666666667,-96.9807833333333,16.4,18.8,58,984.27,10.8,82,12.38,0.0,1010.94,277.8
2019-05-22 22:30,50.63047,-96.9807833333333,16.9,20.0,67,984.25,11.1,81,12.38,0.0,1010.91,277.8
2019-05-22 22:40,50.63047,-96.9807816666667,15.9,18.3,76,984.21,11.3,82,12.42,0.0,1010.82,277.8
2019-05-22 22:50,50.6304716666667,-96.98078,15.5,19.1,76,984.15,11.4,82,12.40,0.0,1010.77,277.8
2019-05-22 23:00,50.63047,-96.9807833333333,17.4,20.7,74,984.16,11.5,79,12.37,0.0,1010.79,278.0
2019-05-22 23:10,50.63047,-96.980785,18.1,21.6,72,984.22,11.6,78,12.35,0.0,1010.85,278.0
2019-05-22 23:20,50.63047,-96.9807883333333,18.1,20.8,72,984.20,11.6,77,12.34,0.0,1010.83,278.0
2019-05-22 23:30,50.6304716666667,-96.98079,17.8,21.0,71,984.29,11.6,77,12.37,0.0,1010.93,278.0
2019-05-22 23:40,50.6304716666667,-96.98079,18.0,21.0,74,984.34,11.8,77,12.38,0.0,1010.99,278.0
